Time,TemperatureF,DewpointF,PressureIn,WindDirection,WindDirectionDegrees,WindSpeedMPH,WindSpeedGustMPH,Humidity,HourlyPrecipIn,Conditions,Clouds,dailyrainin,SoftwareType,DateUTC
2014-03-08 00:01:00,51.1,42.0,29.79,North,360,0.0,-999.0,70,-99.99,,,0.00,weatherlink.com 1.10,2014-03-08 06:01:00,
2014-03-08 00:16:00,50.7,42.0,29.79,North,360,0.0,-999.0,71,-99.99,,,0.00,weatherlink.com 1.10,2014-03-08 06:16:00,
2014-03-08 00:31:00,50.1,41.0,29.79,North,360,0.0,-999.0,71,-99.99,,,0.00,weatherlink.com 1.10,2014-03-08 06:31:00,
2014-03-08 00:46:00,49.1,41.0,29.80,North,360,0.0,-999.0,74,-99.99,,,0.00,weatherlink.com 1.10,2014-03-08 06:46:00,
2014-03-08 01:01:00,48.9,41.0,29.80,North,360,0.0,-999.0,74,-99.99,,,0.00,weatherlink.com 1.10,2014-03-08 07:01:00,
2014-03-08 01:16:00,48.8,41.0,29.80,North,360,0.0,-999.0,75,-99.99,,,0.00,weatherlink.com 1.10,2014-03-08 07:16:00,
2014-03-08 01:31:00,48.0,41.0,29.80,North,360,0.0,-999.0,77,-99.99,,,0.00,weatherlink.com 1.10,2014-03-08 07:31:00,
2014-03-08 01:46:00,47.3,41.0,29.80,North,360,0.0,-999.0,79,-99.99,,,0.00,weatherlink.com 1.10,2014-03-08 07:46:00,
2014-03-08 02:01:00,47.3,41.0,29.81,North,360,0.0,-999.0,80,-99.99,,,0.00,weatherlink.com 1.10,2014-03-08 08:01:00,
2014-03-08 02:16:00,47.4,42.0,29.81,North,360,0.0,-999.0,81,-99.99,,,0.00,weatherlink.com 1.10,2014-03-08 08:16:00,
2014-03-08 02:31:00,48.5,43.0,29.81,North,360,0.0,-999.0,82,-99.99,,,0.00,weatherlink.com 1.10,2014-03-08 08:31:00,
2014-03-08 02:46:00,49.6,44.0,29.82,North,360,0.0,-999.0,82,-99.99,,,0.00,weatherlink.com 1.10,2014-03-08 08:46:00,
2014-03-08 03:01:00,50.4,45.0,29.83,North,360,0.0,-999.0,81,-99.99,,,0.00,weatherlink.com 1.10,2014-03-08 09:01:00,
2014-03-08 03:16:00,50.8,45.0,29.84,North,360,0.0,-999.0,81,-99.99,,,0.00,weatherlink.com 1.10,2014-03-08 09:16:00,
2014-03-08 03:31:00,51.1,45.0,29.84,North,360,0.0,-999.0,81,-99.99,,,0.00,weatherlink.com 1.10,2014-03-08 09:31:00,
2014-03-08 03:46:00,51.6,46.0,29.85,North,360,0.0,-999.0,81,-99.99,,,0.00,weatherlink.com 1.10,2014-03-08 09:46:00,
2014-03-08 04:01:00,51.9,46.0,29.84,North,360,0.0,-999.0,81,-99.99,,,0.00,weatherlink.com 1.10,2014-03-08 10:01:00,
2014-03-08 04:16:00,52.2,47.0,29.84,North,360,0.0,-999.0,81,-99.99,,,0.00,weatherlink.com 1.10,2014-03-08 10:16:00,
2014-03-08 04:31:00,52.3,47.0,29.85,North,360,0.0,-999.0,81,-99.99,,,0.00,weatherlink.com 1.10,2014-03-08 10:31:00,
2014-03-08 04:47:00,52.5,47.0,29.86,North,360,0.0,-999.0,81,-99.99,,,0.00,weatherlink.com 1.10,2014-03-08 10:47:00,
2014-03-08 05:02:00,52.5,47.0,29.85,North,360,0.0,-999.0,81,-99.99,,,0.00,weatherlink.com 1.10,2014-03-08 11:02:00,
2014-03-08 05:16:00,52.6,47.0,29.86,North,360,0.0,-999.0,81,-99.99,,,0.00,weatherlink.com 1.10,2014-03-08 11:16:00,
2014-03-08 05:32:00,52.6,47.0,29.87,North,360,0.0,-999.0,81,-99.99,,,0.00,weatherlink.com 1.10,2014-03-08 11:32:00,
2014-03-08 05:47:00,52.6,47.0,29.87,North,360,0.0,-999.0,81,-99.99,,,0.00,weatherlink.com 1.10,2014-03-08 11:47:00,
2014-03-08 06:02:00,52.6,47.0,29.87,North,360,0.0,-999.0,82,-99.99,,,0.00,weatherlink.com 1.10,2014-03-08 12:02:00,
2014-03-08 06:17:00,52.6,47.0,29.87,North,360,0.0,-999.0,82,-99.99,,,0.00,weatherlink.com 1.10,2014-03-08 12:17:00,
2014-03-08 06:32:00,52.6,47.0,29.89,North,360,0.0,-999.0,82,-99.99,,,0.00,weatherlink.com 1.10,2014-03-08 12:32:00,
2014-03-08 06:47:00,52.6,48.0,29.89,North,360,0.0,-999.0,83,-99.99,,,0.00,weatherlink.com 1.10,2014-03-08 12:47:00,
2014-03-08 07:02:00,52.5,48.0,29.89,North,360,0.0,-999.0,83,-99.99,,,0.00,weatherlink.com 1.10,2014-03-08 13:02:00,
2014-03-08 07:17:00,52.6,48.0,29.90,North,360,0.0,-999.0,84,-99.99,,,0.00,weatherlink.com 1.10,2014-03-08 13:17:00,
2014-03-08 07:32:00,52.9,48.0,29.91,North,360,0.0,-999.0,84,-99.99,,,0.00,weatherlink.com 1.10,2014-03-08 13:32:00,
2014-03-08 07:47:00,53.1,48.0,29.91,North,360,0.0,-999.0,84,-99.99,,,0.00,weatherlink.com 1.10,2014-03-08 13:47:00,
2014-03-08 08:02:00,53.2,49.0,29.91,North,360,0.0,-999.0,84,-99.99,,,0.00,weatherlink.com 1.10,2014-03-08 14:02:00,
2014-03-08 08:17:00,53.5,49.0,29.92,North,360,0.0,-999.0,84,-99.99,,,0.00,weatherlink.com 1.10,2014-03-08 14:17:00,
2014-03-08 08:32:00,53.5,49.0,29.93,North,360,0.0,-999.0,83,-99.99,,,0.00,weatherlink.com 1.10,2014-03-08 14:32:00,
2014-03-08 08:47:00,53.6,49.0,29.94,North,360,0.0,-999.0,83,-99.99,,,0.00,weatherlink.com 1.10,2014-03-08 14:47:00,
2014-03-08 09:02:00,53.9,49.0,29.95,North,360,0.0,-999.0,82,-99.99,,,0.00,weatherlink.com 1.10,2014-03-08 15:02:00,
2014-03-08 09:17:00,53.9,49.0,29.96,North,360,0.0,-999.0,83,-99.99,,,0.00,weatherlink.com 1.10,2014-03-08 15:17:00,
2014-03-08 09:32:00,54.1,49.0,29.97,North,360,0.0,-999.0,83,-99.99,,,0.00,weatherlink.com 1.10,2014-03-08 15:32:00,
2014-03-08 09:47:00,54.2,49.0,29.98,North,360,0.0,-999.0,83,-99.99,,,0.00,weatherlink.com 1.10,2014-03-08 15:47:00,
2014-03-08 10:02:00,54.4,49.0,29.98,North,360,0.0,-999.0,83,-99.99,,,0.00,weatherlink.com 1.10,2014-03-08 16:02:00,
2014-03-08 10:17:00,54.7,49.0,29.98,North,360,0.0,-999.0,82,-99.99,,,0.00,weatherlink.com 1.10,2014-03-08 16:17:00,
2014-03-08 10:32:00,55.0,50.0,29.99,North,360,0.0,-999.0,82,-99.99,,,0.00,weatherlink.com 1.10,2014-03-08 16:32:00,
2014-03-08 10:47:00,55.0,49.0,29.99,North,360,0.0,-999.0,81,-99.99,,,0.00,weatherlink.com 1.10,2014-03-08 16:47:00,
2014-03-08 11:02:00,55.0,50.0,30.00,North,360,0.0,-999.0,82,-99.99,,,0.00,weatherlink.com 1.10,2014-03-08 17:02:00,
2014-03-08 11:17:00,54.8,50.0,30.00,North,360,0.0,-999.0,84,-99.99,,,0.00,weatherlink.com 1.10,2014-03-08 17:17:00,
2014-03-08 11:32:00,54.2,51.0,30.02,North,360,0.0,-999.0,87,-99.99,,,0.00,weatherlink.com 1.10,2014-03-08 17:32:00,
2014-03-08 11:47:00,53.8,51.0,30.02,North,360,0.0,-999.0,89,-99.99,,,0.00,weatherlink.com 1.10,2014-03-08 17:47:00,
2014-03-08 12:02:00,51.6,44.0,30.02,North,360,0.0,-999.0,74,-99.99,,,0.00,weatherlink.com 1.10,2014-03-08 18:02:00,
2014-03-08 12:17:00,52.2,43.0,30.02,North,360,0.0,-999.0,71,-99.99,,,0.00,weatherlink.com 1.10,2014-03-08 18:17:00,
2014-03-08 12:32:00,52.9,43.0,30.01,North,360,0.0,-999.0,69,-99.99,,,0.00,weatherlink.com 1.10,2014-03-08 18:32:00,
2014-03-08 12:47:00,53.3,43.0,30.01,North,360,0.0,-999.0,68,-99.99,,,0.00,weatherlink.com 1.10,2014-03-08 18:47:00,
2014-03-08 13:02:00,53.3,43.0,30.02,North,360,0.0,-999.0,68,-99.99,,,0.00,weatherlink.com 1.10,2014-03-08 19:02:00,
2014-03-08 13:17:00,52.9,43.0,30.02,North,360,0.0,-999.0,68,-99.99,,,0.00,weatherlink.com 1.10,2014-03-08 19:17:00,
2014-03-08 13:32:00,52.8,44.0,30.02,North,360,0.0,-999.0,71,-99.99,,,0.00,weatherlink.com 1.10,2014-03-08 19:32:00,
2014-03-08 13:47:00,50.5,42.0,30.03,North,360,0.0,-999.0,73,-99.99,,,0.00,weatherlink.com 1.10,2014-03-08 19:47:00,
2014-03-08 14:02:00,49.4,42.0,30.03,North,360,0.0,-999.0,75,-99.99,,,0.00,weatherlink.com 1.10,2014-03-08 20:02:00,
2014-03-08 14:17:00,48.8,42.0,30.03,North,360,0.0,-999.0,76,-99.99,,,0.00,weatherlink.com 1.10,2014-03-08 20:17:00,
2014-03-08 14:32:00,49.1,42.0,30.02,North,360,0.0,-999.0,77,-99.99,,,0.00,weatherlink.com 1.10,2014-03-08 20:32:00,
2014-03-08 14:47:00,49.1,43.0,30.02,North,360,0.0,-999.0,78,-99.99,,,0.00,weatherlink.com 1.10,2014-03-08 20:47:00,
2014-03-08 15:02:00,49.2,42.0,30.02,North,360,0.0,-999.0,77,-99.99,,,0.00,weatherlink.com 1.10,2014-03-08 21:02:00,
2014-03-08 15:17:00,48.6,42.0,30.03,North,360,0.0,-999.0,78,-99.99,,,0.00,weatherlink.com 1.10,2014-03-08 21:17:00,
2014-03-08 15:32:00,48.3,42.0,30.03,North,360,0.0,-999.0,78,-99.99,,,0.00,weatherlink.com 1.10,2014-03-08 21:32:00,
2014-03-08 15:47:00,47.3,41.0,30.04,North,360,0.0,-999.0,78,-99.99,,,0.00,weatherlink.com 1.10,2014-03-08 21:47:00,
2014-03-08 16:02:00,46.5,40.0,30.05,North,360,0.0,-999.0,79,-99.99,,,0.00,weatherlink.com 1.10,2014-03-08 22:02:00,
2014-03-08 16:17:00,46.1,40.0,30.05,North,360,0.0,-999.0,79,-99.99,,,0.00,weatherlink.com 1.10,2014-03-08 22:17:00,
2014-03-08 16:32:00,44.9,39.0,30.07,North,360,0.0,-999.0,80,-99.99,,,0.00,weatherlink.com 1.10,2014-03-08 22:32:00,
2014-03-08 16:47:00,44.1,38.0,30.09,North,360,0.0,-999.0,79,-99.99,,,0.00,weatherlink.com 1.10,2014-03-08 22:47:00,
2014-03-08 17:02:00,43.8,37.0,30.09,North,-999,0.0,-999.0,78,-99.99,,,0.00,weatherlink.com 1.10,2014-03-08 23:02:00,
2014-03-08 17:17:00,43.9,37.0,30.10,North,360,0.0,-999.0,78,-99.99,,,0.00,weatherlink.com 1.10,2014-03-08 23:17:00,
2014-03-08 17:32:00,43.5,37.0,30.10,North,360,0.0,-999.0,79,-99.99,,,0.00,weatherlink.com 1.10,2014-03-08 23:32:00,
2014-03-08 17:47:00,42.6,37.0,30.11,North,360,0.0,-999.0,80,-99.99,,,0.00,weatherlink.com 1.10,2014-03-08 23:47:00,
2014-03-08 18:02:00,42.1,36.0,30.12,North,360,0.0,-999.0,80,-99.99,,,0.00,weatherlink.com 1.10,2014-03-09 00:02:00,
2014-03-08 18:17:00,41.3,36.0,30.12,North,360,0.0,-999.0,82,-99.99,,,0.00,weatherlink.com 1.10,2014-03-09 00:17:00,
2014-03-08 18:32:00,41.1,36.0,30.13,North,360,0.0,-999.0,82,-99.99,,,0.00,weatherlink.com 1.10,2014-03-09 00:32:00,
2014-03-08 18:47:00,40.8,35.0,30.13,North,-999,0.0,-999.0,81,-99.99,,,0.00,weatherlink.com 1.10,2014-03-09 00:47:00,
2014-03-08 19:02:00,40.2,35.0,30.14,North,360,0.0,-999.0,80,-99.99,,,0.00,weatherlink.com 1.10,2014-03-09 01:02:00,
2014-03-08 19:17:00,40.1,35.0,30.14,North,360,0.0,-999.0,82,-99.99,,,0.00,weatherlink.com 1.10,2014-03-09 01:17:00,
2014-03-08 19:32:00,39.8,34.0,30.14,North,360,0.0,-999.0,81,-99.99,,,0.00,weatherlink.com 1.10,2014-03-09 01:32:00,
2014-03-08 19:47:00,39.5,34.0,30.15,North,360,0.0,-999.0,81,-99.99,,,0.00,weatherlink.com 1.10,2014-03-09 01:47:00,
2014-03-08 20:03:00,39.3,34.0,30.16,North,360,0.0,-999.0,81,-99.99,,,0.00,weatherlink.com 1.10,2014-03-09 02:03:00,
2014-03-08 20:18:00,39.1,34.0,30.16,North,360,0.0,-999.0,82,-99.99,,,0.00,weatherlink.com 1.10,2014-03-09 02:18:00,
2014-03-08 20:33:00,38.6,34.0,30.17,North,360,0.0,-999.0,84,-99.99,,,0.00,weatherlink.com 1.10,2014-03-09 02:33:00,
2014-03-08 20:48:00,38.3,34.0,30.18,North,360,0.0,-999.0,85,-99.99,,,0.00,weatherlink.com 1.10,2014-03-09 02:48:00,
2014-03-08 21:03:00,38.2,34.0,30.20,North,360,0.0,-999.0,85,-99.99,,,0.00,weatherlink.com 1.10,2014-03-09 03:03:00,
2014-03-08 21:18:00,38.2,34.0,30.20,North,360,0.0,-999.0,85,-99.99,,,0.00,weatherlink.com 1.10,2014-03-09 03:18:00,
2014-03-08 21:33:00,38.3,34.0,30.21,North,-999,0.0,-999.0,85,-99.99,,,0.00,weatherlink.com 1.10,2014-03-09 03:33:00,
2014-03-08 21:48:00,38.2,34.0,30.20,North,360,0.0,-999.0,85,-99.99,,,0.00,weatherlink.com 1.10,2014-03-09 03:48:00,
2014-03-08 22:03:00,38.2,34.0,30.19,North,360,0.0,-999.0,85,-99.99,,,0.00,weatherlink.com 1.10,2014-03-09 04:03:00,
2014-03-08 22:18:00,38.2,34.0,30.20,North,360,0.0,-999.0,84,-99.99,,,0.00,weatherlink.com 1.10,2014-03-09 04:18:00,
2014-03-08 22:33:00,38.2,34.0,30.20,North,360,0.0,-999.0,84,-99.99,,,0.00,weatherlink.com 1.10,2014-03-09 04:33:00,
2014-03-08 22:48:00,38.0,34.0,30.20,North,360,0.0,-999.0,84,-99.99,,,0.00,weatherlink.com 1.10,2014-03-09 04:48:00,
2014-03-08 23:03:00,38.0,33.0,30.21,North,360,0.0,-999.0,83,-99.99,,,0.00,weatherlink.com 1.10,2014-03-09 05:03:00,
2014-03-08 23:18:00,38.2,34.0,30.21,North,360,0.0,-999.0,83,-99.99,,,0.00,weatherlink.com 1.10,2014-03-09 05:18:00,
2014-03-08 23:33:00,38.2,33.0,30.22,North,360,0.0,-999.0,82,-99.99,,,0.00,weatherlink.com 1.10,2014-03-09 05:33:00,
2014-03-08 23:48:00,38.2,33.0,30.22,North,360,0.0,-999.0,82,-99.99,,,0.00,weatherlink.com 1.10,2014-03-09 05:48:00,